DO7AX-13 Weather Reports


time (UTC)temp
C
wind
direction
speed
KPH
gust
KPH
rain 1hr
cm
rain 24hr
cm
rain mn
cm
humidity
%
barometer
mb
20190822114216 25 134 8.0 22.5 0.00 0.03 0.03 41 1022.2
20190822113715 25 89 12.9 29.0 0.00 0.03 0.03 41 1022.2
20190822113215 25 305 4.8 29.0 0.00 0.03 0.03 43 1022.4
20190822112717 25 192 14.5 24.1 0.00 0.03 0.03 42 1022.4
20190822112216 25 221 6.4 24.1 0.00 0.03 0.03 44 1022.5
20190822111717 25 164 8.0 22.5 0.00 0.03 0.03 44 1022.6
20190822111216 24 173 8.0 22.5 0.00 0.03 0.03 45 1022.5
20190822110716 24 142 11.3 22.5 0.00 0.03 0.03 46 1022.5
20190822110215 24 142 9.7 22.5 0.00 0.03 0.03 48 1022.6
20190822105715 24 234 9.7 22.5 0.00 0.03 0.03 44 1022.7
20190822104215 24 145 14.5 20.9 0.00 0.03 0.03 47 1022.7
20190822103215 23 127 9.7 24.1 0.00 0.03 0.03 49 1022.8
20190822102716 23 128 14.5 25.7 0.00 0.03 0.03 47 1022.8
20190822102219 23 124 9.7 25.7 0.00 0.03 0.03 47 1022.9
20190822101718 23 134 12.9 25.7 0.00 0.03 0.03 48 1022.9
20190822100216 23 131 14.5 22.5 0.00 0.03 0.03 47 1023.1
20190822095715 23 171 12.9 20.9 0.00 0.03 0.03 47 1023.2
20190822095216 23 124 8.0 20.9 0.00 0.03 0.03 50 1023.2
20190822093716 22 114 14.5 24.1 0.00 0.03 0.03 48 1023.3
20190822093215 22 118 14.5 19.3 0.00 0.03 0.03 48 1023.3
20190822092716 22 114 12.9 19.3 0.00 0.03 0.03 48 1023.4
20190822092216 22 128 9.7 17.7 0.00 0.03 0.03 52 1023.5
20190822091718 22 103 6.4 14.5 0.00 0.03 0.03 52 1023.5
20190822091215 22 154 6.4 19.3 0.00 0.03 0.03 51 1023.5
20190822090717 22 164 8.0 19.3 0.00 0.03 0.03 51 1023.6
20190822090215 22 149 4.8 19.3 0.00 0.03 0.03 53 1023.6
20190822085716 22 135 12.9 19.3 0.00 0.03 0.03 52 1023.7
20190822085216 22 162 4.8 19.3 0.00 0.03 0.03 54 1023.6
20190822084716 22 142 11.3 17.7 0.00 0.03 0.03 53 1023.7
20190822084216 21 183 9.7 17.7 0.00 0.03 0.03 55 1023.8
20190822083716 21 128 6.4 17.7 0.00 0.03 0.03 55 1023.8
20190822083215 21 155 9.7 14.5 0.00 0.03 0.03 57 1023.8
20190822082716 21 113 8.0 17.7 0.00 0.03 0.03 58 1023.9
20190822082217 21 124 9.7 17.7 0.00 0.03 0.03 60 1023.8
20190822081715 21 107 8.0 17.7 0.00 0.03 0.03 59 1023.9
20190822080216 20 131 8.0 16.1 0.00 0.03 0.03 64 1023.9
20190822075715 20 161 6.4 17.7 0.00 0.03 0.03 65 1023.9
20190822075215 19 172 6.4 17.7 0.00 0.03 0.03 67 1023.9
20190822074717 19 113 8.0 17.7 0.00 0.03 0.03 67 1023.9
20190822074216 19 125 9.7 19.3 0.00 0.03 0.03 68 1023.9
20190822073716 19 141 8.0 19.3 0.00 0.03 0.03 68 1023.8
20190822073215 18 114 8.0 19.3 0.00 0.03 0.03 70 1023.9
20190822072716 18 121 8.0 14.5 0.00 0.03 0.03 70 1023.7
20190822072217 18 152 4.8 16.1 0.00 0.03 0.03 71 1023.8
20190822071716 18 165 6.4 17.7 0.00 0.03 0.03 73 1023.8
20190822071216 18 131 8.0 17.7 0.00 0.03 0.03 74 1023.9
20190822070716 18 151 8.0 17.7 0.00 0.03 0.03 73 1023.8
20190822070216 17 120 8.0 14.5 0.00 0.03 0.03 75 1023.8
20190822065716 17 113 9.7 14.5 0.00 0.03 0.03 76 1023.8
20190822065216 17 133 8.0 14.5 0.00 0.03 0.03 77 1023.7
20190822064715 17 134 6.4 14.5 0.00 0.03 0.03 79 1023.8
20190822064216 16 144 8.0 14.5 0.00 0.03 0.03 79 1023.8
20190822063716 16 127 4.8 16.1 0.00 0.03 0.03 81 1023.9
20190822062717 16 135 6.4 16.1 0.00 0.03 0.03 82 1023.7
20190822062216 15 130 8.0 16.1 0.00 0.03 0.03 83 1023.7
20190822061716 15 117 8.0 16.1 0.00 0.03 0.03 84 1023.7
20190822061215 15 111 8.0 14.5 0.00 0.03 0.03 84 1023.6
20190822060716 15 133 6.4 14.5 0.00 0.03 0.03 86 1023.7
20190822060216 14 116 8.0 14.5 0.00 0.03 0.03 86 1023.7
20190822055715 14 145 6.4 16.1 0.03 0.03 0.03 87 1023.8
20190822055215 13 144 9.7 16.1 0.03 0.03 0.03 88 1023.7
20190822054717 13 128 9.7 16.1 0.03 0.03 0.03 89 1023.7
20190822054218 13 127 9.7 16.1 0.03 0.03 0.03 90 1023.8
20190822053716 13 145 8.0 14.5 0.03 0.03 0.03 91 1023.9
20190822053216 13 123 8.0 14.5 0.03 0.03 0.03 92 1023.8
20190822051716 12 138 6.4 11.3 0.03 0.03 0.03 94 1023.9
20190822051217 12 131 9.7 9.7 0.03 0.03 0.03 95 1023.8
20190822050717 12 133 6.4 9.7 0.03 0.03 0.03 95 1023.9
20190822050218 11 134 4.8 8.0 0.03 0.03 0.03 95 1023.9
20190822045717 11 130 4.8 8.0 0.00 0.00 0.00 95 1023.9
20190822045216 11 134 4.8 8.0 0.00 0.00 0.00 95 1023.9
20190822044716 11 137 4.8 8.0 0.00 0.00 0.00 94 1024.0
20190822044217 11 133 4.8 8.0 0.00 0.00 0.00 94 1024.1
20190822043216 11 133 4.8 8.0 0.00 0.00 0.00 94 1024.1
20190822042716 11 133 4.8 8.0 0.00 0.00 0.00 94 1024.1
20190822042227 11 141 3.2 8.0 0.00 0.00 0.00 94 1024.1
20190822041719 11 142 4.8 8.0 0.00 0.00 0.00 94 1024.2
20190822041226 11 144 4.8 6.4 0.00 0.00 0.00 94 1024.1
20190822040747 11 144 3.2 6.4 0.00 0.00 0.00 94 1024.2
20190822040226 11 144 3.2 8.0 0.00 0.00 0.00 94 1024.1
20190822035716 11 144 3.2 8.0 0.00 0.00 0.00 94 1024.2
20190822035216 11 144 4.8 9.7 0.00 0.00 0.00 94 1024.1
20190822033717 11 149 4.8 8.0 0.00 0.00 0.00 94 1024.2
20190822033216 11 149 3.2 8.0 0.00 0.00 0.00 94 1024.1
20190822032715 11 147 3.2 9.7 0.00 0.00 0.00 94 1024.0
20190822032221 11 147 4.8 9.7 0.00 0.00 0.00 94 1024.1
20190822031716 11 149 6.4 9.7 0.00 0.00 0.00 94 1024.2
20190822031216 11 141 4.8 9.7 0.00 0.00 0.00 94 1024.2
20190822030715 11 147 6.4 9.7 0.00 0.00 0.00 94 1024.2
20190822030218 11 152 6.4 9.7 0.00 0.00 0.00 94 1024.2
20190822025716 11 147 6.4 9.7 0.00 0.00 0.00 94 1024.2
20190822025215 11 149 6.4 9.7 0.00 0.00 0.00 94 1024.3
20190822024716 11 147 6.4 8.0 0.00 0.00 0.00 94 1024.3
20190822024216 11 152 4.8 8.0 0.00 0.00 0.00 94 1024.4
20190822023715 11 154 4.8 9.7 0.00 0.00 0.00 94 1024.3
20190822023215 11 149 6.4 9.7 0.00 0.00 0.00 94 1024.3
20190822021216 11 149 4.8 11.3 0.00 0.00 0.00 95 1024.3
20190822020716 11 147 4.8 8.0 0.00 0.00 0.00 94 1024.3
20190822020215 11 149 6.4 8.0 0.00 0.00 0.00 94 1024.3
20190822015215 11 147 3.2 9.7 0.00 0.00 0.00 94 1024.4
20190822014716 11 148 4.8 9.7 0.00 0.00 0.00 94 1024.4
20190822013715 11 152 3.2 6.4 0.00 0.00 0.00 93 1024.4
20190822013215 11 152 3.2 6.4 0.00 0.00 0.00 93 1024.4
20190822012216 11 152 3.2 8.0 0.00 0.00 0.00 93 1024.5
20190822011718 12 152 4.8 8.0 0.00 0.00 0.00 93 1024.5
20190822011216 12 152 3.2 8.0 0.00 0.00 0.00 93 1024.5
20190822010715 12 152 4.8 8.0 0.00 0.00 0.00 93 1024.5
20190822010217 12 152 4.8 8.0 0.00 0.00 0.00 93 1024.6
20190822005715 12 152 4.8 8.0 0.00 0.00 0.00 93 1024.5
20190822005215 12 152 4.8 8.0 0.00 0.00 0.00 93 1024.6
20190822004715 12 152 4.8 8.0 0.00 0.00 0.00 93 1024.5
20190822004216 12 152 3.2 8.0 0.00 0.00 0.00 93 1024.5
20190822003715 12 152 6.4 8.0 0.00 0.00 0.00 93 1024.5
20190822003216 12 152 6.4 8.0 0.00 0.00 0.00 92 1024.5
20190822002715 12 159 4.8 6.4 0.00 0.00 0.00 92 1024.5
20190822002216 12 180 4.8 4.8 0.00 0.00 0.00 92 1024.5
20190822001716 12 180 3.2 4.8 0.00 0.00 0.00 91 1024.6
20190822001216 12 180 3.2 6.4 0.00 0.00 0.00 91 1024.5
20190822000715 12 180 3.2 6.4 0.00 0.00 0.00 92 1024.6
20190822000217 12 180 3.2 6.4 0.00 0.00 0.00 91 1024.5
20190821235715 12 180 3.2 4.8 0.00 0.00 0.00 91 1024.6
20190821234216 12 180 3.2 8.0 0.00 0.00 0.00 91 1024.6
20190821233715 12 180 4.8 6.4 0.00 0.00 0.00 91 1024.5
20190821233217 12 179 4.8 8.0 0.00 0.00 0.00 91 1024.4
20190821232715 12 172 3.2 8.0 0.00 0.00 0.00 91 1024.6
20190821232216 13 171 4.8 8.0 0.00 0.00 0.00 91 1024.5
20190821231718 13 169 4.8 8.0 0.00 0.00 0.00 91 1024.6
20190821231216 13 171 4.8 8.0 0.00 0.00 0.00 91 1024.6
20190821230717 13 168 4.8 8.0 0.00 0.00 0.00 91 1024.6
20190821230216 13 176 3.2 8.0 0.00 0.00 0.00 91 1024.6
20190821225715 13 178 3.2 8.0 0.00 0.00 0.00 91 1024.6
20190821225215 13 175 4.8 8.0 0.00 0.00 0.00 91 1024.6
20190821224716 13 178 4.8 8.0 0.00 0.00 0.00 91 1024.7
20190821223716 13 171 4.8 6.4 0.00 0.00 0.00 91 1024.7
20190821223216 13 168 3.2 6.4 0.00 0.00 0.00 91 1024.7
20190821222715 13 169 4.8 6.4 0.00 0.00 0.00 91 1024.7
20190821222219 13 171 4.8 6.4 0.00 0.00 0.00 90 1024.7
20190821221216 13 171 3.2 6.4 0.00 0.00 0.00 90 1024.7
20190821220717 13 171 3.2 6.4 0.00 0.00 0.00 90 1024.8
20190821220216 13 171 3.2 6.4 0.00 0.00 0.00 90 1024.8
20190821215216 13 171 4.8 8.0 0.00 0.00 0.00 90 1024.8
20190821214719 13 171 3.2 8.0 0.00 0.00 0.00 89 1024.8
20190821212216 13 178 4.8 8.0 0.00 0.00 0.00 89 1024.6
20190821211716 13 179 4.8 8.0 0.00 0.00 0.00 89 1024.7
20190821211216 13 183 4.8 8.0 0.00 0.00 0.00 89 1024.7
20190821210715 13 178 4.8 8.0 0.00 0.00 0.00 89 1024.6
20190821210216 13 176 3.2 8.0 0.00 0.00 0.00 90 1024.6
20190821205715 13 185 4.8 8.0 0.00 0.00 0.00 90 1024.7
20190821203715 13 176 3.2 8.0 0.00 0.00 0.00 89 1024.5
20190821203216 13 178 3.2 8.0 0.00 0.00 0.00 89 1024.5
20190821202715 13 179 3.2 8.0 0.00 0.00 0.00 89 1024.4
20190821202215 13 189 4.8 8.0 0.00 0.03 0.00 89 1024.5
20190821201716 14 180 4.8 6.4 0.00 0.03 0.00 89 1024.4
20190821201215 14 347 3.2 4.8 0.00 0.05 0.00 89 1024.4
20190821200717 14 348 3.2 4.8 0.00 0.05 0.00 89 1024.4
20190821200216 14 348 3.2 6.4 0.00 0.05 0.00 88 1024.3
20190821195715 14 348 3.2 6.4 0.00 0.05 0.00 88 1024.4
20190821194717 14 347 3.2 4.8 0.00 0.15 0.00 87 1024.3
20190821194216 14 347 1.6 4.8 0.00 0.15 0.00 87 1024.3
20190821193715 15 347 3.2 3.2 0.00 0.23 0.00 86 1024.3
20190821193215 15 347 1.6 4.8 0.00 0.43 0.00 85 1024.3
20190821192716 15 347 3.2 4.8 0.00 0.43 0.00 85 1024.3
20190821192216 15 347 3.2 4.8 0.00 0.43 0.00 84 1024.3
20190821191216 15 344 1.6 0.0 0.00 0.43 0.00 82 1024.4
20190821190715 15 344 0.0 3.2 0.00 0.43 0.00 81 1024.3
20190821190215 16 344 0.0 3.2 0.00 0.43 0.00 80 1024.3
20190821185716 16 344 0.0 3.2 0.00 0.43 0.00 80 1024.3
20190821184215 16 344 0.0 0.0 0.00 0.43 0.00 78 1024.2
20190821183717 17 344 0.0 0.0 0.00 0.43 0.00 77 1024.2
20190821183216 17 344 0.0 0.0 0.00 0.43 0.00 77 1024.2
20190821182717 17 344 0.0 0.0 0.00 0.43 0.00 77 1024.1
20190821182216 17 344 0.0 0.0 0.00 0.43 0.00 76 1024.2
20190821181716 17 344 0.0 0.0 0.00 0.43 0.00 75 1024.2
20190821181215 17 344 0.0 0.0 0.00 0.43 0.00 75 1024.2
20190821180716 18 344 0.0 0.0 0.00 0.43 0.00 74 1024.1
20190821180216 18 344 0.0 0.0 0.00 0.43 0.00 75 1024.1
20190821175716 18 344 0.0 0.0 0.00 0.43 0.00 74 1024.1
20190821175215 18 344 0.0 0.0 0.00 0.43 0.00 73 1024.1
20190821174217 18 344 0.0 1.6 0.00 0.43 0.00 71 1024.2
20190821173716 18 344 0.0 3.2 0.00 0.43 0.00 70 1024.2
20190821173215 18 344 0.0 4.8 0.00 0.43 0.00 68 1024.1
20190821172717 19 344 0.0 4.8 0.00 0.43 0.00 67 1024.1
20190821172217 19 344 0.0 4.8 0.00 0.43 0.00 67 1024.2
20190821171717 19 344 3.2 4.8 0.00 0.43 0.00 68 1024.2
20190821171215 19 345 1.6 4.8 0.00 0.43 0.00 66 1024.3
20190821170215 19 344 1.6 4.8 0.00 0.43 0.00 67 1024.2
20190821165216 19 343 3.2 4.8 0.00 0.43 0.00 67 1024.2
20190821164716 19 323 1.6 6.4 0.00 0.43 0.00 69 1024.1
20190821164216 19 338 1.6 8.0 0.00 0.43 0.00 69 1024.2
20190821163715 19 338 1.6 8.0 0.00 0.43 0.00 70 1024.1
20190821163217 19 337 1.6 8.0 0.00 0.43 0.00 70 1024.1
20190821162715 19 336 3.2 8.0 0.00 0.43 0.00 69 1024.1
20190821162219 19 333 3.2 9.7 0.00 0.43 0.00 71 1024.2
20190821160216 20 334 4.8 14.5 0.00 0.43 0.00 69 1024.2
20190821155715 20 299 4.8 14.5 0.00 0.43 0.00 69 1024.1
20190821155216 20 337 4.8 14.5 0.00 0.43 0.00 68 1024.1
20190821154717 20 327 4.8 11.3 0.00 0.43 0.00 67 1024.1
20190821154216 20 336 4.8 14.5 0.00 0.43 0.00 67 1024.0
20190821153715 20 337 6.4 14.5 0.00 0.43 0.00 66 1024.0
20190821153216 21 299 4.8 16.1 0.00 0.43 0.00 67 1024.0
20190821152715 21 317 6.4 16.1 0.00 0.43 0.00 65 1023.9
20190821152216 21 317 3.2 16.1 0.00 0.43 0.00 65 1023.9
20190821150715 21 299 8.0 17.7 0.00 0.43 0.00 61 1023.8
20190821150216 21 289 6.4 19.3 0.00 0.43 0.00 62 1023.8
20190821145715 20 268 8.0 19.3 0.00 0.43 0.00 63 1023.9
20190821145215 20 295 11.3 19.3 0.00 0.43 0.00 65 1023.8
20190821144716 20 295 11.3 17.7 0.00 0.43 0.00 64 1023.7
20190821144216 20 337 8.0 19.3 0.00 0.43 0.00 64 1023.8
20190821143716 20 290 6.4 22.5 0.00 0.43 0.00 63 1023.7
20190821143216 20 283 11.3 24.1 0.00 0.43 0.00 62 1023.7
20190821142716 20 316 9.7 24.1 0.00 0.43 0.00 63 1023.7
20190821142215 20 282 11.3 24.1 0.00 0.43 0.00 62 1023.7
20190821141718 20 305 9.7 19.3 0.00 0.43 0.00 65 1023.7
20190821141216 20 312 9.7 19.3 0.00 0.43 0.00 64 1023.6
20190821135715 21 296 6.4 11.3 0.00 0.43 0.00 63 1023.6
20190821134716 21 306 6.4 19.3 0.00 0.43 0.00 62 1023.6
20190821134217 21 299 6.4 19.3 0.00 0.43 0.00 61 1023.6
20190821133715 21 306 12.9 16.1 0.00 0.43 0.00 60 1023.6
20190821133216 21 307 3.2 19.3 0.00 0.43 0.00 58 1023.7
20190821132716 21 306 4.8 19.3 0.00 0.43 0.00 57 1023.6
20190821132215 21 259 9.7 19.3 0.00 0.43 0.00 56 1023.7
20190821131719 21 265 11.3 19.3 0.00 0.43 0.00 60 1023.7
20190821131216 21 274 11.3 16.1 0.00 0.43 0.00 60 1023.7
20190821130716 21 307 8.0 17.7 0.00 0.43 0.00 62 1023.6
20190821130215 21 230 8.0 17.7 0.00 0.43 0.00 58 1023.7
20190821125716 21 286 9.7 16.1 0.00 0.43 0.00 59 1023.7
20190821125217 21 221 8.0 17.7 0.00 0.43 0.00 58 1023.6
20190821124717 21 254 9.7 17.7 0.00 0.43 0.00 59 1023.6
20190821124216 21 281 4.8 22.5 0.00 0.43 0.00 60 1023.6
20190821121715 21 247 8.0 20.9 0.00 0.43 0.00 60 1023.7
20190821121215 20 264 8.0 22.5 0.00 0.43 0.00 62 1023.6
20190821120716 20 283 9.7 22.5 0.00 0.43 0.00 60 1023.6
20190821120216 20 240 12.9 22.5 0.00 0.43 0.00 58 1023.7
20190821115716 20 271 11.3 24.1 0.00 0.43 0.00 60 1023.7
20190821115215 20 262 11.3 25.7 0.00 0.43 0.00 60 1023.8
20190821114715 21 285 12.9 25.7 0.00 0.43 0.00 61 1023.7